Showing default

CONNECTA IOT-10, 64555

Orbit data source: Space-Track

CONNECTA IOT-10, 64555 is a payload satellite owned by Plan-S (TR) in SSO that was launched on Mon, 23 Jun 2025 UTC via an FALCON 9 launch vehicle from the Air Force Western Test Range (AFWTR). Payload-class satellites include a variety of spacecraft equipped with specific instruments for various scientific and technological missions. These include communications satellites like Starlink; space stations such as the ISS; scientific satellites like the Hubble; Earth observation satellites from companies like Planet Labs, Umbra, and HawkEye 360; GPS; miniature CubeSats for education and research; and military/defense satellites.

Loading next visibility...
Identifier
64555, 2025-135AD
Orbit
SSO
Country
Flag of TRTR / TURK
Related business
Manufacturer
Plan-S
Mission
Operational Commercial Communications
Bus & Motor
CUBESAT 6U, Unknown motor
Mass
10 kg wet, 10 kg dry
Launch date (UTC)
2025-06-23 (1 year ago)
Launch vehicle
FALCON 9
Launch site
Air Force Western Test Range (AFWTR)
Object type
Payload
Rocket body
Debris
Shape & HBR
Box, 2.2 m
Radar Cross Section
0.080 m², Medium (>0.1 m² and < 1m²)

Expand to show TLE details & history
Last TLE update: 12 hours ago

TLE from 12 hours ago
0 CONNECTA IOT-10
1 64555U 25135AD  26178.29462235  .00003323  00000-0  15539-3 0  9995
2 64555  97.4694 293.2277 0000689  85.3328 274.7986 15.20463261 56396
Epoch: 2026-06-27T07:04Z
TLE epoch observation values (Epoch: 2026-06-27T07:04:15.371Z)
Latitude
0.00002°
Longitude
-88.24719°
Altitude
507.492 km
Speed
7.61 km/s
True Right ascension
19h 32m 54s
True Declination
0° 00' 00"
Sunlit
Object was in full shadow at epoch
Visualization orbit readout
Latitude
Unknown
Longitude
Unknown
Altitude
Unknown
Speed
Unknown
Apparent Right ascension
Unknown
Apparent Declination
Unknown
Sunlit
N/A
Visualization observer readout
Local Sidereal Time
06:17:25
Azimuth
Unknown
Elevation
Unknown
Doppler factor
Unknown
Orbital elements
Apogee altitude
501.884 km
Perigee altitude
500.936 km
Semi-major axis
6,879.547 km
Eccentricity
0.00007
Inclination
97.4694°
RAAN
293.2277°
Arg. of periapsis
85.3328°
True anomaly
274.79073°
Mean anomaly
274.7986°
Eccentric anomaly
274.79467°
Mean motion
3.80367 °/min
Orbital period
94.65 mins
BSTAR
0.00015539
Loading maneuver chart data...
Computing Atmospheric mass density...
Loading historical data...
Loading historical data...
Loading historical data...
Loading historical data...
Loading historical data...
Loading historical data...
Loading historical data...

Documentation

Showing up to 5 results
|